R/V Knorr Calliope CSV data file  (Time stamps are GMT)
Date, Time_GMT, Depth12, Depth35, Air_Temp, WXT5_Ta, WXT5_Pa, dec_lat, dec_lon, EDO_knt, GPS_COG, GPS_SOG, Gyro, IMET_BPR, IMET_SWR, WXT5_Ri, WXT5_Rc, HRH, WXT5_Ua, WXT5_Dm, WXT5_Sm, SBE45C, SBE45S, SBE45T, Salinity, SSCND, Fluorometer, SSTMP, SSV, Wnd_Dir, TWD_5, Wnd_Spd, TWS_5, HdChkSum=52
2008/04/04, 00:00:14, 1233.00, 0.00, 1.65, 2.10, 1016.2, 67.4004930, 3.9835170, , 58.40, 13.38, 57.60, 1016.73, -0.80, 0.0, 20.63, 79.24, 83.2, 23, 14.4, 35.81690, 35.08480, 7.4914, 35.0848, 35.8169, 98.20, 6.2151, 1475.70, 115.20, 93.6, 8.58, 8.5, 52
2008/04/04, 00:01:14, 1231.00, 0.00, 1.48, 2.00, 1016.1, 67.4021080, 3.9908970, , 62.60, 10.88, 57.50, 1017.11, -0.60, 0.0, 20.63, 79.17, 83.1, 14, 16.4, 35.79970, 35.08480, 7.4729, 35.0848, 35.7997, 97.30, 6.2174, 1475.71, 117.70, 76.4, 8.75, 10.1, 52
2008/04/04, 00:02:14, 1231.00, 0.00, 1.45, 2.00, 1015.9, 67.4037680, 3.9983450, , 63.20, 12.97, 58.60, 1017.00, -0.70, 0.0, 20.63, 79.39, 83.5, 13, 15.8, 35.80440, 35.08500, 7.4778, 35.0850, 35.8044, 97.30, 6.2258, 1475.74, 111.20, 72.7, 8.08, 9.3, 52
2008/04/04, 00:03:14, 1229.00, 0.00, 1.31, 1.90, 1016.3, 67.4054120, 4.0058170, , 60.70, 11.88, 59.00, 1017.00, -0.50, 0.0, 20.63, 78.64, 82.7, 10, 14.0, 35.79790, 35.08200, 7.4737, 35.0820, 35.7979, 97.30, 6.2401, 1475.79, 110.40, 69.0, 8.20, 7.8, 52
2008/04/04, 00:04:13, 1230.00, 0.00, 1.37, 1.90, 1016.2, 67.4070170, 4.0131700, , 60.90, 12.71, 57.60, 1016.99, -0.40, 0.0, 20.63, 78.22, 83.0, 9, 14.3, 35.77080, 35.07830, 7.4482, 35.0783, 35.7708, 97.30, 6.2561, 1475.85, 110.40, 68.1, 6.79, 7.6, 52
2008/04/04, 00:05:14, 1230.00, 0.00, 1.53, 2.00, 1016.0, 67.4086530, 4.0204970, , 60.30, 11.09, 56.50, 1016.95, -0.20, 0.0, 20.63, 78.12, 82.9, 6, 16.6, 35.74780, 35.07640, 7.4254, 35.0764, 35.7478, 96.70, 6.2710, 1475.90, 100.40, 60.4, 7.25, 10.2, 52
2008/04/04, 00:06:14, 1230.00, 0.00, 1.48, 2.00, 1015.8, 67.4103400, 4.0279880, , 60.30, 12.57, 57.20, 1016.65, 0.00, 0.0, 20.63, 75.51, 79.8, 359, 15.7, 35.73130, 35.07520, 7.4088, 35.0752, 35.7313, 96.70, 6.2832, 1475.95, 90.20, 51.9, 8.92, 10.0, 52
2008/04/04, 00:07:13, 1230.00, 0.00, 1.67, 2.00, 1016.1, 67.4120270, 4.0354680, , 60.40, 13.74, 58.10, 1016.67, 0.00, 0.0, 20.63, 75.18, 80.2, 2, 16.3, 35.72720, 35.07720, 7.4023, 35.0772, 35.7272, 96.70, 6.2954, 1476.00, 83.70, 56.0, 8.25, 10.0, 52
2008/04/04, 00:08:14, 1230.00, 0.00, 1.59, 2.00, 1015.8, 67.4136850, 4.0428420, , 56.40, 12.03, 56.40, 1016.70, -0.20, 0.0, 20.63, 73.56, 77.3, 3, 15.5, 35.74620, 35.08030, 7.4197, 35.0803, 35.7462, 97.30, 6.3070, 1476.05, 91.50, 55.4, 8.36, 9.1, 52
2008/04/04, 00:09:14, 1234.00, 0.00, 1.53, 2.00, 1015.9, 67.4153430, 4.0500980, , 56.50, 12.37, 58.00, 1016.38, -0.30, 0.0, 20.63, 71.53, 74.9, 0, 15.6, 35.78660, 35.08350, 7.4600, 35.0835, 35.7866, 96.70, 6.3175, 1476.10, 94.00, 51.9, 8.15, 9.3, 52
2008/04/04, 00:10:14, 1230.00, 0.00, 1.59, 2.10, 1015.7, 67.4169870, 4.0575780, , 59.80, 12.34, 59.20, 1016.83, -0.10, 0.0, 20.63, 70.79, 73.8, 6, 16.7, 35.80410, 35.08710, 7.4753, 35.0871, 35.8041, 96.40, 6.3262, 1476.13, 92.60, 63.7, 8.04, 10.3, 52
2008/04/04, 00:11:14, 1230.00, 0.00, 1.62, 2.10, 1016.0, 67.4186380, 4.0653520, , 61.60, 12.49, 59.20, 1016.28, -0.10, 0.0, 20.63, 69.95, 72.4, 4, 16.5, 35.82940, 35.08860, 7.5011, 35.0886, 35.8294, 96.40, 6.3334, 1476.17, 98.10, 59.4, 8.45, 9.7, 52
2008/04/04, 00:12:14, 1230.00, 0.00, 1.76, 2.10, 1016.1, 67.4202370, 4.0729150, , 60.10, 9.43, 57.60, 1016.77, -0.10, 0.0, 20.63, 70.97, 73.7, 358, 15.6, 35.83820, 35.08820, 7.5109, 35.0882, 35.8382, 97.30, 6.3381, 1476.18, 94.10, 51.0, 9.24, 10.3, 52
2008/04/04, 00:13:14, 1232.00, 0.00, 1.73, 2.20, 1015.8, 67.4218530, 4.0801850, , 56.70, 12.01, 56.90, 1016.84, 0.10, 0.0, 20.63, 69.20, 71.3, 1, 16.0, 35.85490, 35.08890, 7.5283, 35.0889, 35.8549, 96.40, 6.3416, 1476.20, 90.00, 53.6, 7.06, 9.2, 52
2008/04/04, 00:14:13, 1235.00, 0.00, 1.84, 2.20, 1015.7, 67.4234100, 4.0873200, , 60.60, 13.16, 57.10, 1016.56, 0.00, 0.0, 20.63, 68.79, 70.9, 358, 15.2, 35.87950, 35.09010, 7.5535, 35.0901, 35.8795, 96.40, 6.3438, 1476.21, 90.90, 46.7, 8.37, 8.9, 52
2008/04/04, 00:15:14, 1238.00, 0.00, 1.92, 2.30, 1016.0, 67.4250300, 4.0946680, , 60.50, 12.73, 57.80, 1016.49, 0.10, 0.0, 20.63, 69.84, 72.3, 359, 16.3, 35.88660, 35.08880, 7.5625, 35.0888, 35.8866, 96.40, 6.3442, 1476.21, 87.00, 52.2, 7.89, 10.6, 52
2008/04/04, 00:16:14, 1240.00, 0.00, 1.95, 2.40, 1015.9, 67.4267170, 4.1021930, , 59.10, 12.33, 57.20, 1016.50, 0.00, 0.0, 20.63, 69.61, 71.8, 358, 15.4, 35.88930, 35.09210, 7.5620, 35.0921, 35.8893, 96.10, 6.3445, 1476.21, 80.70, 46.6, 7.64, 10.0, 52
2008/04/04, 00:17:14, 1240.00, 0.00, 1.90, 2.40, 1015.9, 67.4283130, 4.1095880, , 60.40, 11.87, 57.90, 1016.93, 0.20, 0.0, 20.63, 68.95, 70.5, 356, 14.1, 35.88810, 35.09130, 7.5616, 35.0913, 35.8881, 96.70, 6.3451, 1476.21, 84.80, 46.0, 7.75, 8.3, 52
2008/04/04, 00:18:13, 1242.00, 0.00, 2.01, 2.50, 1016.2, 67.4299980, 4.1170430, , 62.40, 9.80, 58.10, 1016.88, 0.20, 0.0, 20.63, 69.79, 71.2, 5, 16.6, 35.90830, 35.09170, 7.5830, 35.0917, 35.9083, 96.70, 6.3463, 1476.22, 82.70, 60.1, 7.39, 10.9, 52
2008/04/04, 00:19:13, 1242.00, 0.00, 1.90, 2.40, 1016.0, 67.4316600, 4.1243950, , 58.30, 11.79, 56.60, 1016.40, -0.10, 0.0, 20.63, 69.10, 70.4, 0, 16.0, 35.88930, 35.08880, 7.5654, 35.0888, 35.8893, 94.80, 6.3482, 1476.23, 87.80, 50.0, 7.05, 9.5, 52
2008/04/04, 00:20:14, 1242.00, 0.00, 1.84, 2.40, 1016.0, 67.4333100, 4.1317870, , 57.40, 12.02, 56.20, 1016.35, 0.00, 0.0, 20.63, 68.84, 70.2, 358, 15.3, 35.90210, 35.09120, 7.5768, 35.0912, 35.9021, 93.30, 6.3504, 1476.23, 81.20, 45.1, 7.49, 9.8, 52
2008/04/04, 00:21:14, 1244.00, 0.00, 1.84, 2.40, 1015.9, 67.4349480, 4.1394680, , 58.20, 12.33, 58.00, 1016.77, -0.20, 0.0, 20.63, 69.05, 70.3, 1, 16.3, 35.88950, 35.08890, 7.5655, 35.0889, 35.8895, 94.30, 6.3531, 1476.24, 90.60, 54.5, 6.42, 9.8, 52
2008/04/04, 00:22:14, 1245.00, 0.00, 1.95, 2.40, 1016.0, 67.4366030, 4.1469670, , 60.60, 12.39, 57.00, 1016.58, 0.20, 0.0, 20.63, 69.08, 71.0, 357, 15.4, 35.88890, 35.08980, 7.5639, 35.0898, 35.8889, 96.40, 6.3567, 1476.26, 82.20, 46.5, 5.68, 9.1, 52
2008/04/04, 00:23:14, 1245.00, 0.00, 1.81, 2.30, 1016.0, 67.4383350, 4.1548170, , 59.60, 12.05, 57.90, 1016.87, -0.20, 0.0, 20.63, 67.71, 68.8, 359, 15.7, 35.88270, 35.08950, 7.5576, 35.0895, 35.8827, 97.60, 6.3607, 1476.27, 82.60, 50.8, 5.68, 9.3, 52
2008/04/04, 00:24:14, 1243.00, 0.00, 1.90, 2.30, 1015.9, 67.4399430, 4.1622320, , 65.30, 10.46, 60.10, 1016.89, 0.10, 0.0, 20.63, 68.10, 69.6, 3, 16.2, 35.88380, 35.08950, 7.5587, 35.0895, 35.8838, 95.80, 6.3656, 1476.30, 87.40, 59.7, 6.84, 10.7, 52
2008/04/04, 00:25:14, 1244.00, 0.00, 1.98, 2.40, 1015.7, 67.4415780, 4.1697200, , 59.30, 13.13, 58.20, 1016.58, 0.10, 0.0, 20.63, 68.74, 70.2, 1, 11.7, 35.89360, 35.09220, 7.5667, 35.0922, 35.8936, 96.40, 6.3705, 1476.32, 100.20, 59.3, 6.40, 4.9, 52
2008/04/04, 00:26:14, 1247.00, 0.00, 1.90, 2.50, 1016.0, 67.4432000, 4.1773080, , 65.60, 12.46, 59.50, 1016.60, 0.20, 0.0, 20.63, 69.49, 71.3, 355, 14.2, 35.90870, 35.09200, 7.5831, 35.0920, 35.9087, 97.60, 6.3754, 1476.34, 93.70, 43.3, 5.32, 7.7, 52
2008/04/04, 00:27:14, 1266.00, 0.00, 2.09, 2.50, 1015.9, 67.4448200, 4.1847100, , 58.70, 12.49, 58.40, 1016.64, 0.20, 0.0, 20.63, 69.20, 70.6, 2, 14.8, 35.89450, 35.09240, 7.5675, 35.0924, 35.8945, 96.70, 6.3792, 1476.35, 81.80, 56.8, 5.71, 8.7, 52
2008/04/04, 00:28:14, 1245.00, 0.00, 1.98, 2.50, 1015.9, 67.4465030, 4.1924200, , 61.20, 11.79, 59.40, 1016.69, 0.10, 0.0, 20.63, 68.10, 69.4, 10, 14.4, 35.90970, 35.09210, 7.5840, 35.0921, 35.9097, 97.00, 6.3819, 1476.36, 100.20, 72.1, 5.99, 8.1, 52
2008/04/04, 00:29:14, 1247.00, 0.00, 1.95, 2.50, 1015.6, 67.4482320, 4.2002080, , 58.20, 10.80, 59.00, 1016.53, 0.20, 0.0, 20.63, 68.38, 69.7, 8, 13.7, 35.89760, 35.09190, 7.5712, 35.0919, 35.8976, 96.70, 6.3839, 1476.37, 96.90, 64.2, 5.87, 7.5, 52
2008/04/04, 00:30:13, 1248.00, 0.00, 2.06, 2.50, 1015.7, 67.4499100, 4.2077620, , 59.80, 13.20, 58.00, 1016.43, -0.10, 0.0, 20.63, 68.72, 69.9, 1, 13.1, 35.90060, 35.09270, 7.5736, 35.0927, 35.9006, 96.10, 6.3860, 1476.38, 99.10, 52.7, 6.21, 7.2, 52
2008/04/04, 00:31:14, 1251.00, 0.00, 2.01, 2.60, 1015.9, 67.4515730, 4.2150950, , 55.80, 12.12, 57.40, 1016.34, 0.30, 0.0, 20.63, 68.05, 69.7, 358, 12.6, 35.91890, 35.09270, 7.5934, 35.0927, 35.9189, 96.10, 6.3882, 1476.38, 86.70, 45.1, 4.97, 6.2, 52
2008/04/04, 00:32:14, 1255.00, 0.00, 2.12, 2.50, 1015.7, 67.4533250, 4.2228320, , 57.80, 12.85, 57.90, 1016.45, 0.00, 0.0, 20.63, 66.13, 67.1, 358, 14.2, 35.91860, 35.09190, 7.5938, 35.0919, 35.9186, 95.50, 6.3916, 1476.40, 84.10, 47.8, 5.13, 7.6, 52
2008/04/04, 00:33:14, 1258.00, 0.00, 2.23, 2.60, 1015.8, 67.4550350, 4.2305030, , 61.20, 13.00, 59.00, 1016.51, 0.20, 0.0, 20.63, 67.50, 69.0, 1, 14.6, 35.92250, 35.09190, 7.5980, 35.0919, 35.9225, 93.30, 6.3954, 1476.41, 85.90, 53.5, 4.65, 7.5, 52
2008/04/04, 00:34:14, 1259.00, 0.00, 2.09, 2.60, 1015.7, 67.4566950, 4.2381870, , 60.80, 12.64, 59.00, 1016.57, 0.20, 0.0, 20.63, 66.73, 67.9, 358, 12.4, 35.92270, 35.09230, 7.5978, 35.0923, 35.9227, 91.80, 6.4001, 1476.43, 87.50, 49.0, 5.84, 6.1, 52
2008/04/04, 00:35:14, 1259.00, 0.00, 2.26, 2.70, 1015.7, 67.4583480, 4.2459500, , 61.70, 12.32, 59.30, 1016.39, 0.20, 0.0, 20.63, 66.39, 67.9, 350, 11.8, 35.93120, 35.09020, 7.6090, 35.0902, 35.9312, 90.30, 6.4050, 1476.45, 88.80, 30.5, 4.69, 6.0, 52
2008/04/04, 00:36:14, 1259.00, 0.00, 2.20, 2.70, 1015.4, 67.4600550, 4.2534120, , 58.60, 12.38, 57.90, 1016.56, 0.20, 0.0, 20.63, 65.36, 66.4, 357, 13.7, 35.91750, 35.08940, 7.5951, 35.0894, 35.9175, 89.10, 6.4079, 1476.46, 71.90, 46.0, 5.60, 7.8, 52
2008/04/04, 00:37:14, 1260.00, 0.00, 2.23, 2.70, 1015.7, 67.4617700, 4.2609520, , 61.80, 12.80, 59.80, 1016.32, 0.30, 0.0, 20.63, 63.14, 65.1, 353, 15.4, 35.92170, 35.08980, 7.5993, 35.0898, 35.9217, 92.10, 6.4080, 1476.46, 79.00, 43.4, 6.15, 9.0, 52
2008/04/04, 00:38:14, 1259.00, 0.00, 2.40, 2.70, 1015.6, 67.4634420, 4.2688020, , 59.10, 12.41, 57.40, 1016.36, 0.20, 0.0, 20.63, 63.53, 65.3, 349, 13.7, 35.92850, 35.09180, 7.6046, 35.0918, 35.9285, 95.50, 6.4073, 1476.46, 61.20, 30.0, 7.15, 7.8, 52
2008/04/04, 00:39:13, 1259.00, 0.00, 2.43, 2.80, 1015.5, 67.4651600, 4.2764220, , 60.50, 12.64, 58.20, 1016.28, 0.40, 0.0, 20.63, 66.63, 67.9, 2, 17.2, 35.93140, 35.09230, 7.6072, 35.0923, 35.9314, 96.40, 6.4051, 1476.45, 75.80, 57.4, 6.56, 10.4, 52
2008/04/04, 00:40:14, 1258.00, 0.00, 2.40, 2.90, 1015.6, 67.4667930, 4.2839270, , 59.80, 11.15, 58.30, 1016.04, 0.00, 0.0, 20.63, 69.67, 70.4, 4, 16.2, 35.92950, 35.09280, 7.6047, 35.0928, 35.9295, 95.50, 6.4026, 1476.44, 85.00, 60.1, 9.76, 10.3, 52
2008/04/04, 00:41:14, 1257.00, 0.00, 2.20, 2.80, 1015.2, 67.4684100, 4.2915570, , 61.70, 12.37, 58.00, 1015.96, 0.10, 0.0, 20.63, 69.77, 70.3, 356, 16.2, 35.93980, 35.09320, 7.6154, 35.0932, 35.9398, 96.70, 6.4013, 1476.44, 81.10, 46.9, 8.79, 10.1, 52
2008/04/04, 00:42:14, 1257.00, 0.00, 2.31, 2.80, 1015.5, 67.4700420, 4.2991220, , 61.60, 12.75, 58.20, 1015.96, 0.00, 0.0, 20.63, 70.25, 71.6, 4, 16.6, 35.94320, 35.09390, 7.6183, 35.0939, 35.9432, 97.30, 6.4015, 1476.44, 78.00, 60.1, 8.44, 9.9, 52
2008/04/04, 00:43:14, 1258.00, 0.00, 2.20, 2.70, 1015.3, 67.4717020, 4.3066620, , 62.50, 12.04, 58.80, 1016.13, -0.10, 0.0, 20.63, 70.15, 71.6, 356, 15.7, 35.94780, 35.09320, 7.6240, 35.0932, 35.9478, 97.30, 6.4027, 1476.45, 90.00, 46.3, 8.87, 9.4, 52
2008/04/04, 00:44:14, 1258.00, 0.00, 2.17, 2.70, 1015.2, 67.4733820, 4.3143080, , 59.40, 12.54, 58.60, 1015.79, -0.20, 0.0, 20.63, 68.17, 70.1, 359, 15.9, 35.94030, 35.09330, 7.6157, 35.0933, 35.9403, 96.70, 6.4045, 1476.45, 74.10, 52.1, 8.46, 9.5, 52
2008/04/04, 00:45:14, 1258.00, 0.00, 2.12, 2.60, 1015.4, 67.4750320, 4.3217820, , 60.50, 11.09, 57.70, 1015.92, -0.20, 0.0, 20.63, 65.80, 67.5, 356, 15.6, 35.93180, 35.09130, 7.6086, 35.0913, 35.9318, 96.10, 6.4064, 1476.46, 81.50, 46.3, 8.32, 9.3, 52
2008/04/04, 00:46:14, 1258.00, 0.00, 2.09, 2.50, 1015.5, 67.4767080, 4.3293450, , 61.70, 11.93, 59.50, 1016.16, -0.20, 0.0, 20.63, 64.94, 65.8, 359, 15.8, 35.92510, 35.09070, 7.6021, 35.0907, 35.9251, 94.30, 6.4082, 1476.46, 85.10, 52.4, 8.38, 9.6, 52
2008/04/04, 00:47:14, 1259.00, 0.00, 2.01, 2.40, 1015.6, 67.4783450, 4.3371470, , 61.00, 12.31, 57.50, 1015.96, -0.30, 0.0, 20.63, 63.45, 63.7, 358, 16.5, 35.92740, 35.09040, 7.6048, 35.0904, 35.9274, 92.10, 6.4100, 1476.47, 80.40, 49.1, 7.97, 10.3, 52
2008/04/04, 00:48:14, 1258.00, 0.00, 2.04, 2.50, 1015.5, 67.4800430, 4.3447870, , 59.20, 12.36, 58.90, 1016.12, -0.10, 0.0, 20.63, 67.32, 67.9, 359, 15.7, 35.92100, 35.09040, 7.5979, 35.0904, 35.9210, 91.20, 6.4108, 1476.47, 82.30, 51.0, 7.62, 9.8, 52
2008/04/04, 00:49:14, 1259.00, 0.00, 1.98, 2.50, 1015.2, 67.4816530, 4.3522880, , 61.80, 11.86, 58.70, 1016.25, -0.30, 0.0, 20.63, 66.37, 68.0, 358, 15.8, 35.92420, 35.09130, 7.6005, 35.0913, 35.9242, 90.90, 6.4113, 1476.47, 86.70, 49.5, 7.22, 9.7, 52
2008/04/04, 00:50:14, 1259.00, 0.00, 2.04, 2.40, 1015.4, 67.4833330, 4.3599200, , 61.40, 11.23, 58.00, 1015.81, -0.20, 0.0, 20.63, 65.51, 66.8, 358, 15.9, 35.92720, 35.09020, 7.6047, 35.0902, 35.9272, 90.30, 6.4117, 1476.48, 83.10, 50.2, 7.47, 9.6, 52
2008/04/04, 00:51:14, 1261.00, 0.00, 2.09, 2.50, 1015.3, 67.4849670, 4.3675030, , 61.00, 12.37, 57.90, 1016.00, 0.00, 0.0, 20.63, 65.54, 67.1, 1, 16.6, 35.93000, 35.09190, 7.6061, 35.0919, 35.9300, 90.90, 6.4108, 1476.47, 78.20, 53.5, 8.19, 10.7, 52
2008/04/04, 00:52:14, 1260.00, 0.00, 2.12, 2.60, 1015.2, 67.4866150, 4.3748700, , 58.60, 12.60, 58.30, 1016.40, -0.10, 0.0, 20.63, 65.51, 66.5, 2, 15.6, 35.93370, 35.09160, 7.6103, 35.0916, 35.9337, 92.10, 6.4089, 1476.47, 85.40, 55.6, 8.28, 9.2, 52
2008/04/04, 00:53:13, 1260.00, 0.00, 2.29, 2.60, 1015.2, 67.4883350, 4.3823730, , 56.90, 11.82, 56.90, 1015.85, 0.00, 0.0, 20.63, 66.21, 68.1, 354, 15.4, 35.94270, 35.09300, 7.6187, 35.0930, 35.9427, 92.10, 6.4054, 1476.45, 84.10, 42.6, 8.72, 9.8, 52
2008/04/04, 00:54:13, 1260.00, 0.00, 2.12, 2.60, 1015.2, 67.4900620, 4.3899870, , 59.50, 10.72, 58.40, 1015.88, -0.10, 0.0, 20.63, 64.99, 66.4, 359, 16.0, 35.95180, 35.09240, 7.6291, 35.0924, 35.9518, 92.80, 6.4107, 1476.47, 81.60, 53.2, 7.89, 10.1, 52
2008/04/04, 00:55:13, 1260.00, 0.00, 2.20, 2.60, 1015.4, 67.4917570, 4.3974650, , 57.80, 11.14, 57.60, 1016.15, 0.00, 0.0, 20.63, 66.63, 67.3, 356, 16.3, 35.95390, 35.09240, 7.6313, 35.0924, 35.9539, 93.30, 6.4201, 1476.51, 80.30, 48.8, 8.41, 10.8, 52
2008/04/04, 00:56:13, 1260.00, 0.00, 2.20, 2.60, 1015.4, 67.4934450, 4.4047950, , 62.40, 11.02, 59.00, 1016.00, 0.00, 0.0, 20.63, 67.35, 69.1, 355, 16.3, 35.95180, 35.09290, 7.6285, 35.0929, 35.9518, 93.30, 6.4290, 1476.55, 76.20, 47.1, 7.37, 10.5, 52
2008/04/04, 00:57:14, 1259.00, 0.00, 2.12, 2.60, 1015.3, 67.4951530, 4.4123780, , 64.70, 11.45, 58.70, 1016.34, 0.10, 0.0, 20.63, 65.56, 67.3, 353, 16.0, 35.96620, 35.09140, 7.6455, 35.0914, 35.9662, 94.00, 6.4355, 1476.57, 72.80, 43.4, 7.44, 10.6, 52
2008/04/04, 00:58:14, 1260.00, 0.00, 2.09, 2.60, 1015.7, 67.4968130, 4.4197900, , 60.40, 12.27, 58.30, 1015.99, -0.20, 0.0, 20.63, 65.54, 65.8, 346, 15.5, 35.95920, 35.09340, 7.6360, 35.0934, 35.9592, 93.60, 6.4396, 1476.59, 68.60, 33.0, 7.62, 10.1, 52
2008/04/04, 00:59:14, 1259.00, 0.00, 1.78, 2.60, 1015.3, 67.4984900, 4.4272120, , 61.80, 11.83, 59.30, 1015.85, -0.50, 0.0, 20.63, 68.07, 68.7, 346, 16.2, 35.96260, 35.09100, 7.6421, 35.0910, 35.9626, 93.30, 6.4429, 1476.60, 52.90, 32.8, 8.59, 10.8, 52
2008/04/04, 01:00:14, 1259.00, 0.00, 1.65, 2.40, 1015.4, 67.5001480, 4.4346970, , 58.70, 11.92, 56.70, 1015.72, -0.70, 0.0, 20.63, 70.05, 70.2, 350, 16.4, 35.96240, 35.09170, 7.6411, 35.0917, 35.9624, 94.00, 6.4448, 1476.61, 45.10, 36.1, 7.79, 10.1, 52
2008/04/04, 01:01:14, 1259.00, 0.00, 1.48, 2.20, 1015.4, 67.5017920, 4.4421020, , 60.40, 11.25, 57.80, 1016.20, -0.80, 0.0, 20.63, 68.74, 69.5, 348, 15.1, 35.96640, 35.09520, 7.6420, 35.0952, 35.9664, 96.70, 6.4459, 1476.62, 50.70, 33.2, 7.29, 9.2, 52
2008/04/04, 01:02:14, 1258.00, 0.00, 1.51, 2.10, 1015.3, 67.5035380, 4.4496180, , 58.60, 12.58, 57.00, 1016.54, -0.50, 0.0, 20.63, 70.15, 71.4, 353, 14.8, 36.00250, 35.09590, 7.6801, 35.0959, 36.0025, 96.10, 6.4479, 1476.62, 47.00, 38.7, 6.63, 8.6, 52
2008/04/04, 01:03:14, 1259.00, 0.00, 1.40, 2.10, 1015.7, 67.5052220, 4.4571900, , 58.60, 11.65, 59.60, 1016.49, -0.60, 0.0, 20.63, 71.97, 73.8, 352, 13.3, 36.00500, 35.09580, 7.6828, 35.0958, 36.0050, 91.80, 6.4488, 1476.63, 52.80, 38.5, 5.86, 7.3, 52
2008/04/04, 01:04:14, 1258.00, 0.00, 1.45, 2.00, 1015.5, 67.5068470, 4.4650120, , 61.30, 12.43, 58.20, 1016.30, -0.50, 0.0, 20.63, 71.58, 73.2, 350, 13.2, 36.00920, 35.09550, 7.6877, 35.0955, 36.0092, 90.90, 6.4494, 1476.63, 45.40, 31.4, 4.99, 7.3, 52
2008/04/04, 01:05:14, 1257.00, 0.00, 1.51, 2.00, 1015.3, 67.5085280, 4.4728950, , 61.70, 11.77, 59.00, 1016.10, -0.40, 0.0, 20.63, 70.20, 72.0, 355, 13.2, 36.01330, 35.09490, 7.6927, 35.0949, 36.0133, 88.10, 6.4499, 1476.63, 53.80, 44.3, 6.32, 7.8, 52
2008/04/04, 01:06:14, 1257.00, 0.00, 1.51, 2.00, 1015.4, 67.5102020, 4.4806100, , 60.70, 13.01, 57.90, 1016.19, -0.20, 0.0, 20.63, 68.82, 71.4, 359, 14.6, 36.00640, 35.09400, 7.6862, 35.0940, 36.0064, 88.40, 6.4501, 1476.63, 62.50, 49.1, 4.66, 7.9, 52
2008/04/04, 01:07:14, 1257.00, 0.00, 1.62, 2.00, 1015.3, 67.5118070, 4.4883320, , 60.30, 11.99, 58.80, 1016.03, 0.10, 0.0, 20.63, 68.77, 71.7, 2, 14.5, 36.02050, 35.09500, 7.7004, 35.0950, 36.0205, 87.90, 6.4510, 1476.63, 79.90, 56.3, 4.50, 8.0, 52
2008/04/04, 01:08:14, 1259.00, 0.00, 1.67, 2.10, 1015.3, 67.5135400, 4.4961930, , 60.80, 12.91, 58.70, 1016.13, 0.20, 0.0, 20.63, 68.25, 70.7, 4, 13.5, 36.00580, 35.09420, 7.6853, 35.0942, 36.0058, 86.60, 6.4515, 1476.64, 77.50, 60.5, 4.56, 6.8, 52
2008/04/04, 01:09:13, 1257.00, 0.00, 1.78, 2.20, 1015.4, 67.5150950, 4.5039570, , 61.90, 12.52, 58.80, 1015.91, 0.30, 0.0, 20.63, 68.30, 70.9, 358, 12.0, 36.00070, 35.09330, 7.6807, 35.0933, 36.0007, 86.40, 6.4518, 1476.64, 78.60, 48.6, 5.31, 6.2, 52
2008/04/04, 01:10:14, 1256.00, 0.00, 1.78, 2.30, 1015.3, 67.5167930, 4.5119980, , 59.90, 12.54, 58.30, 1016.13, 0.30, 0.0, 20.63, 67.76, 70.3, 2, 14.3, 36.00310, 35.09410, 7.6824, 35.0941, 36.0031, 86.00, 6.4529, 1476.64, 72.10, 55.5, 4.31, 8.1, 52
2008/04/04, 01:11:14, 1255.00, 0.00, 1.87, 2.30, 1015.4, 67.5184170, 4.5196980, , 59.50, 12.53, 58.10, 1016.22, 0.20, 0.0, 20.63, 68.41, 69.9, 354, 11.2, 36.00270, 35.09430, 7.6819, 35.0943, 36.0027, 86.00, 6.4538, 1476.65, 68.40, 34.0, 4.43, 4.9, 52
2008/04/04, 01:12:14, 1255.00, 0.00, 2.01, 2.40, 1015.4, 67.5200220, 4.5275370, , 58.50, 11.43, 57.80, 1015.81, 0.10, 0.0, 20.63, 68.23, 70.3, 350, 10.6, 35.99840, 35.09420, 7.6773, 35.0942, 35.9984, 85.70, 6.4547, 1476.65, 66.40, 18.8, 3.35, 4.7, 52
2008/04/04, 01:13:14, 1254.00, 0.00, 2.01, 2.40, 1015.2, 67.5216380, 4.5354230, , 62.20, 12.25, 57.30, 1016.10, 0.30, 0.0, 20.63, 65.93, 67.9, 349, 11.1, 36.00690, 35.09370, 7.6870, 35.0937, 36.0069, 86.40, 6.4558, 1476.65, 69.60, 23.0, 4.23, 5.4, 52
2008/04/04, 01:14:14, 1253.00, 0.00, 2.12, 2.50, 1015.3, 67.5232870, 4.5434650, , 61.70, 12.02, 59.10, 1016.08, 0.20, 0.0, 20.63, 66.94, 68.2, 358, 12.7, 36.01120, 35.09430, 7.6910, 35.0943, 36.0112, 86.40, 6.4566, 1476.66, 77.30, 48.3, 4.88, 6.8, 52
2008/04/04, 01:15:14, 1251.00, 0.00, 2.12, 2.50, 1015.3, 67.5248500, 4.5513980, , 59.30, 12.57, 56.20, 1015.90, 0.30, 0.0, 20.63, 66.81, 68.8, 6, 15.0, 35.99820, 35.09410, 7.6772, 35.0941, 35.9982, 86.60, 6.4566, 1476.66, 74.70, 58.9, 4.95, 8.6, 52
2008/04/04, 01:16:14, 1253.00, 0.00, 2.20, 2.60, 1015.2, 67.5264220, 4.5592970, , 60.50, 12.90, 57.90, 1016.01, 0.30, 0.0, 20.63, 66.68, 68.3, 355, 14.8, 35.99970, 35.09440, 7.6786, 35.0944, 35.9997, 87.60, 6.4560, 1476.65, 90.20, 41.9, 5.20, 8.7, 52
2008/04/04, 01:17:14, 1253.00, 0.00, 2.12, 2.60, 1015.2, 67.5279180, 4.5670380, , 61.80, 10.74, 58.10, 1016.04, 0.10, 0.0, 20.63, 65.77, 67.9, 0, 12.4, 35.99630, 35.09370, 7.6756, 35.0937, 35.9963, 89.10, 6.4554, 1476.65, 73.70, 50.7, 5.71, 6.6, 52
2008/04/04, 01:18:14, 1253.00, 0.00, 2.29, 2.70, 1014.9, 67.5294730, 4.5749880, , 62.30, 11.76, 57.40, 1015.85, 0.10, 0.0, 20.63, 65.17, 68.4, 357, 17.0, 36.00590, 35.09470, 7.6850, 35.0947, 36.0059, 90.30, 6.4536, 1476.65, 76.70, 46.1, 4.96, 11.1, 52
2008/04/04, 01:19:14, 1252.00, 0.00, 2.26, 2.70, 1015.1, 67.5309970, 4.5828820, , 63.60, 11.87, 57.50, 1016.14, 0.30, 0.0, 20.63, 60.31, 62.0, 355, 13.6, 36.01390, 35.09520, 7.6931, 35.0952, 36.0139, 90.90, 6.4462, 1476.62, 69.10, 39.6, 7.10, 7.6, 52
2008/04/04, 01:20:13, 1251.00, 0.00, 2.29, 2.80, 1015.1, 67.5325050, 4.5906320, , 64.50, 10.50, 57.70, 1015.84, 0.20, 0.0, 20.63, 60.60, 61.3, 356, 17.1, 36.00710, 35.09500, 7.6859, 35.0950, 36.0071, 91.50, 6.4323, 1476.56, 71.30, 45.4, 6.15, 11.0, 52
2008/04/04, 01:21:14, 1252.00, 0.00, 2.37, 2.80, 1015.0, 67.5340720, 4.5983450, , 63.90, 12.02, 57.70, 1015.90, 0.30, 0.0, 20.63, 59.41, 59.3, 347, 14.9, 36.00540, 35.09560, 7.6834, 35.0956, 36.0054, 91.80, 6.3983, 1476.43, 66.90, 30.8, 6.78, 9.2, 52
2008/04/04, 01:22:14, 1250.00, 0.00, 2.43, 2.90, 1014.9, 67.5357550, 4.6062570, , 57.60, 12.63, 56.20, 1015.98, 0.30, 0.0, 20.63, 60.39, 60.5, 350, 16.3, 36.01040, 35.09580, 7.6886, 35.0958, 36.0104, 92.10, 6.3467, 1476.23, 52.50, 32.8, 6.00, 10.1, 52
2008/04/04, 01:23:13, 1249.00, 0.00, 2.26, 2.80, 1015.1, 67.5374220, 4.6138320, , 62.80, 11.99, 58.30, 1015.95, 0.20, 0.0, 20.63, 60.41, 60.5, 358, 17.5, 36.00050, 35.09580, 7.6779, 35.0958, 36.0005, 91.80, 6.2765, 1475.95, 56.30, 50.3, 7.38, 11.5, 52
2008/04/04, 01:24:14, 1248.00, 0.00, 2.37, 2.80, 1015.0, 67.5390730, 4.6214220, , 59.20, 12.89, 58.60, 1015.80, 0.20, 0.0, 20.63, 59.70, 59.5, 352, 15.4, 35.99970, 35.09530, 7.6776, 35.0953, 35.9997, 91.50, 6.2113, 1475.70, 71.80, 39.5, 7.09, 9.2, 52
2008/04/04, 01:25:14, 1247.00, 0.00, 2.40, 2.80, 1015.2, 67.5407250, 4.6289470, , 58.40, 12.11, 58.60, 1015.67, 0.20, 0.0, 20.63, 60.31, 60.0, 352, 15.9, 35.99820, 35.09430, 7.6770, 35.0943, 35.9982, 94.30, 6.1644, 1475.51, 75.40, 40.2, 7.62, 10.1, 52
2008/04/04, 01:26:14, 1246.00, 0.00, 2.45, 2.80, 1015.2, 67.5424950, 4.6363970, , 58.60, 12.15, 58.30, 1015.81, 0.30, 0.0, 20.63, 61.31, 61.1, 356, 16.1, 35.97910, 35.09030, 7.6604, 35.0903, 35.9791, 96.40, 6.1329, 1475.38, 77.50, 48.8, 6.94, 9.7, 52
2008/04/04, 01:27:14, 1247.00, 0.00, 2.34, 2.90, 1015.0, 67.5443050, 4.6438170, , 58.30, 12.51, 57.60, 1015.70, 0.20, 0.0, 20.63, 62.88, 64.5, 1, 16.5, 35.95090, 35.08640, 7.6339, 35.0864, 35.9509, 93.00, 6.1255, 1475.35, 82.00, 56.8, 7.29, 9.9, 52
2008/04/04, 01:28:14, 1248.00, 0.00, 2.34, 2.90, 1015.3, 67.5460730, 4.6509600, , 56.70, 11.27, 56.30, 1015.65, 0.20, 0.0, 20.63, 60.44, 61.6, 357, 15.5, 35.89510, 35.08340, 7.5770, 35.0834, 35.8951, 96.40, 6.1506, 1475.44, 77.00, 47.1, 8.02, 9.7, 52
2008/04/04, 01:29:14, 1249.00, 0.00, 2.43, 2.90, 1015.2, 67.5479120, 4.6582720, , 59.70, 12.07, 58.60, 1015.82, -0.20, 0.0, 20.63, 63.35, 64.3, 352, 14.8, 35.80780, 35.07840, 7.4880, 35.0784, 35.8078, 97.30, 6.1956, 1475.61, 84.40, 41.6, 6.97, 8.4, 52
2008/04/04, 01:30:14, 1248.00, 0.00, 2.43, 2.90, 1014.9, 67.5497450, 4.6657670, , 57.40, 12.70, 59.60, 1015.75, 0.10, 0.0, 20.63, 63.35, 63.5, 357, 16.2, 35.69640, 35.06750, 7.3788, 35.0675, 35.6964, 98.00, 6.2416, 1475.78, 80.90, 51.4, 7.41, 10.3, 52
2008/04/04, 01:31:14, 1246.00, 0.00, 2.40, 2.80, 1015.1, 67.5515170, 4.6731300, , 57.60, 12.66, 57.40, 1015.63, -0.10, 0.0, 20.63, 60.99, 60.2, 358, 17.2, 35.62020, 35.06440, 7.2995, 35.0644, 35.6202, 98.20, 6.3000, 1476.01, 79.20, 50.1, 7.11, 11.0, 52
2008/04/04, 01:32:13, 1246.00, 0.00, 2.40, 2.80, 1015.1, 67.5532650, 4.6805630, , 61.10, 11.92, 58.80, 1015.99, -0.10, 0.0, 20.63, 62.75, 62.6, 355, 15.9, 35.60200, 35.06820, 7.2762, 35.0682, 35.6020, 98.00, 6.3593, 1476.24, 82.50, 48.9, 7.59, 10.1, 52